Location: Unspecified
(0.0000°N, 0.0000°E)
Time: 09:39:17
(UTC+00:00)

deb Delta 104 - Pass Details

Date: 06 March 2026
Orbit: 754 x 1064 km, 103.0° (Epoch: 20 April)

Event Time Altitude Azimuth Distance (km) Brightness Sun altitude
Rises 19:05:33 0° 165° (SSE) 3,808 ? -13.5°
Reaches altitude 10° 19:08:06 10° 165° (SSE) 2,828 ? -14.2°
Maximum altitude 19:14:29 85° 253° (WSW) 993 ? -15.8°
Drops below altitude 10° 19:20:24 10° 341° (NNW) 2,632 ? -17.2°
Sets 19:22:43 0° 342° (NNW) 3,528 ? -17.8°
